Regional Weather Roundup
Issued by NWS

Home | Current Version | Previous Version | Graphics & Text | Print | Product List | Glossary On
Versions: 1 2 3 4 5 6 7 8 9 10 11 12 13 14 15 16 17 18 19 20 21 22 23 24 25 26 27 28 29 30 31 32 33 34 35 36 37 38 39 40 41 42 43 44 45 46 47 48 49 50
000
ASUS43 KLSX 051807
RWRMO

WEATHER SUMMARY FOR MISSOURI
NATIONAL WEATHER SERVICE SPRINGFIELD MO
100 PM CDT TUE MAY 05 2015

NOTE: "FAIR" INDICATES FEW OR NO CLOUDS BELOW 12,000 FEET WITH NO
       SIGNIFICANT WEATHER AND/OR OBSTRUCTIONS TO VISIBILITY.
       CURRENT SKY AND/OR WEATHER CONDITIONS ARE NOT AVAILABLE FOR
       CHILLICOTHE AND FARMINGTON.

MOZ001>031-035>038-043-044-053-054-051900-
...NORTHERN AND WESTERN MISSOURI...

CITY           SKY/WX    TMP DP  RH WIND       PRES   REMARKS
KANSAS CTY INT CLOUDY    78  58  49 S16       30.10F
6HR MIN TEMP:  60; 6HR MAX TEMP:  79;

KANSAS C DTWN  PTSUNNY   79  58  48 S13       30.09F
6HR MIN TEMP:  64; 6HR MAX TEMP:  80;

LEE`S SUMMIT   PTSUNNY   78  53  41 S9G18     30.11F
6HR MIN TEMP:  62; 6HR MAX TEMP:  78;

ST JOSEPH      PTSUNNY   77  62  59 S10       30.09F
6HR MIN TEMP:  58; 6HR MAX TEMP:  77;

CHILLICOTHE      N/A     78  62  57 S10       30.12F
6HR MIN TEMP:  57; 6HR MAX TEMP:  78;

KIRKSVILLE     PTSUNNY   78  60  53 S8        30.14F
6HR MIN TEMP:  60; 6HR MAX TEMP:  79;


$$
MOZ066>068-077>081-088>096-101>105-051900-
...SOUTHWEST MISSOURI...

CITY           SKY/WX    TMP DP  RH WIND       PRES   REMARKS
SPRINGFIELD    PTSUNNY   76  60  57 S13       30.14F
6HR MIN TEMP:  62; 6HR MAX TEMP:  79;

JOPLIN         LGT RAIN  75  62  64 S14       30.11F
6HR MIN TEMP:  62; 6HR MAX TEMP:  78; 6HR PCP: TRACE;


$$
MOZ032>034-039>042-045>050-055>058-069>072-051900-
...CENTRAL MISSOURI...

CITY           SKY/WX    TMP DP  RH WIND       PRES   REMARKS
COLUMBIA       MOSUNNY   80  57  45 VRB3      30.14F
6HR MIN TEMP:  62; 6HR MAX TEMP:  80;

JEFFERSON CITY PTSUNNY   82  53  36 S8        30.12F
6HR MIN TEMP:  62; 6HR MAX TEMP:  82;

ROLLA          MOSUNNY   80  58  46 S10G21    30.15F
6HR MIN TEMP:  62; 6HR MAX TEMP:  80;

SEDALIA        MOSUNNY   82  55  39 SW12      30.13F
6HR MIN TEMP:  64; 6HR MAX TEMP:  82;

WHITEMAN AFB   FAIR      82  57  42 S13G22    30.11F
WARRENSBURG    MOSUNNY   81  52  36 S10       30.11F
OSAGE BEACH    PTSUNNY   81  55  41 S13       30.14F

$$
MOZ051-052-059>065-051900-
...EAST CENTRAL MISSOURI...

CITY           SKY/WX    TMP DP  RH WIND       PRES   REMARKS
ST LOUIS INTL  MOSUNNY   84  56  38 S6        30.16F
6HR MIN TEMP:  68; 6HR MAX TEMP:  85;

SPIRIT OF STL  MOSUNNY   83  56  39 S10       30.14F
6HR MIN TEMP:  61; 6HR MAX TEMP:  83;

ST CHARLES     MOSUNNY   84  53  34 S12G21    30.14F
6HR MIN TEMP:  62; 6HR MAX TEMP:  84;


$$
MOZ072>076-082>087-097>100-106>115-051900-
...SOUTH CENTRAL AND SOUTHEAST MISSOURI...

CITY           SKY/WX    TMP DP  RH WIND       PRES   REMARKS
CAPE GIRARDEAU MOSUNNY   83  59  44 SW10      30.19F
6HR MIN TEMP:  59; 6HR MAX TEMP:  83;

FARMINGTON     PTSUNNY   77  57  50 SW16      30.24S
6HR MIN TEMP:  55; 6HR MAX TEMP:  81;

POPLAR BLUFF   MOSUNNY   80  58  46 SW9       30.18F
6HR MIN TEMP:  57; 6HR MAX TEMP:  82;

WEST PLAINS    PTSUNNY   77  58  51 S14G23    30.21F
6HR MIN TEMP:  54; 6HR MAX TEMP:  77; 6HR PCP: TRACE;


$$



USA.gov is the U.S. government's official web portal to all federal, state and local government web resources and services.